Location: G�rlitz
(51.1670°N, 15.0000°E)
Time: 10:32:44
(UTC+01:00)

ARIANE 6 FM1 Upper Stage - Pass Details

Date: 19 February 2026
Orbit: 523 x 607 km, 62.0° (Epoch: 7 March)

Event Time Altitude Azimuth Distance (km) Brightness Sun altitude
Rises 18:37:24 0° 308° (NW) 2,661 6.9 -12.3°
Reaches altitude 10° 18:39:42 10° 300° (WNW) 1,768 6.1 -12.7°
Maximum altitude 18:43:22 37° 233° (SW) 826 4.0 -13.2°
Drops below altitude 10° 18:47:02 10° 165° (SSE) 1,770 5.1 -13.8°
Sets 18:49:20 0° 157° (SSE) 2,665 5.9 -14.2°
